Year,Month,Day,Hour,Minute,Value (Times are PST for temperature in C)
2017,05,02,00,00,5.90
2017,05,02,00,01,5.90
2017,05,02,00,02,5.90
2017,05,02,00,03,5.80
2017,05,02,00,04,5.80
2017,05,02,00,05,5.80
2017,05,02,00,06,5.80
2017,05,02,00,07,5.80
2017,05,02,00,08,5.70
2017,05,02,00,09,5.70
2017,05,02,00,10,5.70
2017,05,02,00,11,5.70
2017,05,02,00,12,5.80
2017,05,02,00,13,5.80
2017,05,02,00,14,5.80
2017,05,02,00,15,5.80
2017,05,02,00,16,5.90
2017,05,02,00,17,5.90
2017,05,02,00,18,5.90
2017,05,02,00,19,5.90
2017,05,02,00,20,5.90
2017,05,02,00,21,5.80
2017,05,02,00,22,5.80
2017,05,02,00,23,5.80
2017,05,02,00,24,5.70
2017,05,02,00,25,5.70
2017,05,02,00,26,5.70
2017,05,02,00,27,5.60
2017,05,02,00,28,5.60
2017,05,02,00,29,5.50
2017,05,02,00,30,5.50
2017,05,02,00,31,5.40
2017,05,02,00,32,5.40
2017,05,02,00,33,5.30
2017,05,02,00,34,5.30
2017,05,02,00,35,5.30
2017,05,02,00,36,5.30
2017,05,02,00,37,5.20
2017,05,02,00,38,5.20
2017,05,02,00,39,5.20
2017,05,02,00,40,5.10
2017,05,02,00,41,5.10
2017,05,02,00,42,5.10
2017,05,02,00,43,5.00
2017,05,02,00,44,5.00
2017,05,02,00,45,5.00
2017,05,02,00,46,4.90
2017,05,02,00,47,4.90
2017,05,02,00,48,4.90
2017,05,02,00,49,4.80
2017,05,02,00,50,4.80
2017,05,02,00,51,4.80
2017,05,02,00,52,4.80
2017,05,02,00,53,4.80
2017,05,02,00,54,4.70
2017,05,02,00,55,4.70
2017,05,02,00,56,4.70
2017,05,02,00,57,4.70
2017,05,02,00,58,4.60
2017,05,02,00,59,4.60
2017,05,02,01,00,4.60
2017,05,02,01,01,4.60
2017,05,02,01,02,4.50
2017,05,02,01,03,4.50
2017,05,02,01,04,4.50
2017,05,02,01,05,4.50
2017,05,02,01,06,4.40
2017,05,02,01,07,4.40
2017,05,02,01,08,4.40
2017,05,02,01,09,4.40
2017,05,02,01,10,4.40
2017,05,02,01,11,4.40
2017,05,02,01,12,4.30
2017,05,02,01,13,4.30
2017,05,02,01,14,4.30
2017,05,02,01,15,4.30
2017,05,02,01,16,4.30
2017,05,02,01,17,4.30
2017,05,02,01,18,4.30
2017,05,02,01,19,4.20
2017,05,02,01,20,4.20
2017,05,02,01,21,4.20
2017,05,02,01,22,4.20
2017,05,02,01,23,4.20
2017,05,02,01,24,4.20
2017,05,02,01,25,4.20
2017,05,02,01,26,4.20
2017,05,02,01,27,4.10
2017,05,02,01,28,4.10
2017,05,02,01,29,4.10
2017,05,02,01,30,4.10
2017,05,02,01,31,4.10
2017,05,02,01,32,4.10
2017,05,02,01,33,4.10
2017,05,02,01,34,4.10
2017,05,02,01,35,4.00
2017,05,02,01,36,4.00
2017,05,02,01,37,4.00
2017,05,02,01,38,4.00
2017,05,02,01,39,4.00
2017,05,02,01,40,4.00
2017,05,02,01,41,4.00
2017,05,02,01,42,4.00
2017,05,02,01,43,4.00
2017,05,02,01,44,4.00
2017,05,02,01,45,4.00
2017,05,02,01,46,4.00
2017,05,02,01,47,4.00
2017,05,02,01,48,4.00
2017,05,02,01,49,4.00
2017,05,02,01,50,3.90
2017,05,02,01,51,3.90
2017,05,02,01,52,3.90
2017,05,02,01,53,3.90
2017,05,02,01,54,4.00
2017,05,02,01,55,4.00
2017,05,02,01,56,4.10
2017,05,02,01,57,4.10
2017,05,02,01,58,4.10
2017,05,02,01,59,4.10
2017,05,02,02,00,4.20
2017,05,02,02,01,4.20
2017,05,02,02,02,4.10
2017,05,02,02,03,4.10
2017,05,02,02,04,4.10
2017,05,02,02,05,4.10
2017,05,02,02,06,4.10
2017,05,02,02,07,4.10
2017,05,02,02,08,4.00
2017,05,02,02,09,4.00
2017,05,02,02,10,3.90
2017,05,02,02,11,3.90
2017,05,02,02,12,3.90
2017,05,02,02,13,3.90
2017,05,02,02,14,3.80
2017,05,02,02,15,3.80
2017,05,02,02,16,3.80
2017,05,02,02,17,3.80
2017,05,02,02,18,3.80
2017,05,02,02,19,3.80
2017,05,02,02,20,3.70
2017,05,02,02,21,3.70
2017,05,02,02,22,3.70
2017,05,02,02,23,3.70
2017,05,02,02,24,3.70
2017,05,02,02,25,3.70
2017,05,02,02,26,3.60
2017,05,02,02,27,3.60
2017,05,02,02,28,3.60
2017,05,02,02,29,3.60
2017,05,02,02,30,3.60
2017,05,02,02,31,3.60
2017,05,02,02,32,3.50
2017,05,02,02,33,3.50
2017,05,02,02,34,3.50
2017,05,02,02,35,3.50
2017,05,02,02,36,3.50
2017,05,02,02,37,3.40
2017,05,02,02,38,3.40
2017,05,02,02,39,3.40
2017,05,02,02,40,3.50
2017,05,02,02,41,3.50
2017,05,02,02,42,3.50
2017,05,02,02,43,3.50
2017,05,02,02,44,3.40
2017,05,02,02,45,3.40
2017,05,02,02,46,3.40
2017,05,02,02,47,3.40
2017,05,02,02,48,3.30
2017,05,02,02,49,3.30
2017,05,02,02,50,3.30
2017,05,02,02,51,3.30
2017,05,02,02,52,3.30
2017,05,02,02,53,3.30
2017,05,02,02,54,3.20
2017,05,02,02,55,3.20
2017,05,02,02,56,3.20
2017,05,02,02,57,3.20
2017,05,02,02,58,3.20
2017,05,02,02,59,3.10
2017,05,02,03,00,3.10
2017,05,02,03,01,3.10
2017,05,02,03,02,3.10
2017,05,02,03,03,3.10
2017,05,02,03,04,3.10
2017,05,02,03,05,3.10
2017,05,02,03,06,3.10
2017,05,02,03,07,3.10
2017,05,02,03,08,3.10
2017,05,02,03,09,3.10
2017,05,02,03,10,3.20
2017,05,02,03,11,3.20
2017,05,02,03,12,3.20
2017,05,02,03,13,3.20
2017,05,02,03,14,3.20
2017,05,02,03,15,3.20
2017,05,02,03,16,3.20
2017,05,02,03,17,3.20
2017,05,02,03,18,3.20
2017,05,02,03,19,3.20
2017,05,02,03,20,3.20
2017,05,02,03,21,3.20
2017,05,02,03,22,3.20
2017,05,02,03,23,3.30
2017,05,02,03,24,3.30
2017,05,02,03,25,3.30
2017,05,02,03,26,3.30
2017,05,02,03,27,3.30
2017,05,02,03,28,3.30
2017,05,02,03,29,3.30
2017,05,02,03,30,3.30
2017,05,02,03,31,3.30
2017,05,02,03,32,3.30
2017,05,02,03,33,3.30
2017,05,02,03,34,3.30
2017,05,02,03,35,3.30
2017,05,02,03,36,3.30
2017,05,02,03,37,3.30
2017,05,02,03,38,3.30
2017,05,02,03,39,3.30
2017,05,02,03,40,3.20
2017,05,02,03,41,3.20
2017,05,02,03,42,3.20
2017,05,02,03,43,3.20
2017,05,02,03,44,3.30
2017,05,02,03,45,3.30
2017,05,02,03,46,3.30
2017,05,02,03,47,3.30
2017,05,02,03,48,3.30
2017,05,02,03,49,3.30
2017,05,02,03,50,3.30
2017,05,02,03,51,3.30
2017,05,02,03,52,3.30
2017,05,02,03,53,3.30
2017,05,02,03,54,3.30
2017,05,02,03,55,3.40
2017,05,02,03,56,3.40
2017,05,02,03,57,3.40
2017,05,02,03,58,3.40
2017,05,02,03,59,3.40
2017,05,02,04,00,3.40
2017,05,02,04,01,3.40
2017,05,02,04,02,3.40
2017,05,02,04,03,3.40
2017,05,02,04,04,3.40
2017,05,02,04,05,3.40
2017,05,02,04,06,3.30
2017,05,02,04,07,3.30
2017,05,02,04,08,3.30
2017,05,02,04,09,3.30
2017,05,02,04,10,3.30
2017,05,02,04,11,3.20
2017,05,02,04,12,3.20
2017,05,02,04,13,3.20
2017,05,02,04,14,3.20
2017,05,02,04,15,3.20
2017,05,02,04,16,3.20
2017,05,02,04,17,3.20
2017,05,02,04,18,3.20
2017,05,02,04,19,3.20
2017,05,02,04,20,3.20
2017,05,02,04,21,3.20
2017,05,02,04,22,3.20
2017,05,02,04,23,3.20
2017,05,02,04,24,3.30
2017,05,02,04,25,3.30
2017,05,02,04,26,3.30
2017,05,02,04,27,3.30
2017,05,02,04,28,3.30
2017,05,02,04,29,3.50
2017,05,02,04,30,3.60
2017,05,02,04,31,3.70
2017,05,02,04,32,3.80
2017,05,02,04,33,3.80
2017,05,02,04,34,3.80
2017,05,02,04,35,3.90
2017,05,02,04,36,4.10
2017,05,02,04,37,4.20
2017,05,02,04,38,4.20
2017,05,02,04,39,4.30
2017,05,02,04,40,4.30
2017,05,02,04,41,4.30
2017,05,02,04,42,4.30
2017,05,02,04,43,4.30
2017,05,02,04,44,4.30
2017,05,02,04,45,4.30
2017,05,02,04,46,4.30
2017,05,02,04,47,4.30
2017,05,02,04,48,4.30
2017,05,02,04,49,4.30
2017,05,02,04,50,4.30
2017,05,02,04,51,4.30
2017,05,02,04,52,4.30
2017,05,02,04,53,4.30
2017,05,02,04,54,4.30
2017,05,02,04,55,4.30
2017,05,02,04,56,4.40
2017,05,02,04,57,4.50
2017,05,02,04,58,4.50
2017,05,02,04,59,4.60
2017,05,02,05,00,4.70
2017,05,02,05,01,4.70
2017,05,02,05,02,4.70
2017,05,02,05,03,4.80
2017,05,02,05,04,4.80
2017,05,02,05,05,4.80
2017,05,02,05,06,4.90
2017,05,02,05,07,4.90
2017,05,02,05,08,4.90
2017,05,02,05,09,5.00
2017,05,02,05,10,5.00
2017,05,02,05,11,5.00
2017,05,02,05,12,5.00
2017,05,02,05,13,5.00
2017,05,02,05,14,5.00
2017,05,02,05,15,5.10
2017,05,02,05,16,5.10
2017,05,02,05,17,5.10
2017,05,02,05,18,5.20
2017,05,02,05,19,5.30
2017,05,02,05,20,5.30
2017,05,02,05,21,5.30
2017,05,02,05,22,5.40
2017,05,02,05,23,5.40
2017,05,02,05,24,5.50
2017,05,02,05,25,5.50
2017,05,02,05,26,5.50
2017,05,02,05,27,5.50
2017,05,02,05,28,5.60
2017,05,02,05,29,5.60
2017,05,02,05,30,5.60
2017,05,02,05,31,5.70
2017,05,02,05,32,5.70
2017,05,02,05,33,5.70
2017,05,02,05,34,5.80
2017,05,02,05,35,5.80
2017,05,02,05,36,5.80
2017,05,02,05,37,5.80
2017,05,02,05,38,5.80
2017,05,02,05,39,5.80
2017,05,02,05,40,5.90
2017,05,02,05,41,5.90
2017,05,02,05,42,5.90
2017,05,02,05,43,5.90
2017,05,02,05,44,6.00
2017,05,02,05,45,6.00
2017,05,02,05,46,6.00
2017,05,02,05,47,6.10
2017,05,02,05,48,6.10
2017,05,02,05,49,6.10
2017,05,02,05,50,6.10
2017,05,02,05,51,6.20
2017,05,02,05,52,6.20
2017,05,02,05,53,6.20
2017,05,02,05,54,6.30
2017,05,02,05,55,6.30
2017,05,02,05,56,6.30
2017,05,02,05,57,6.30
2017,05,02,05,58,6.40
2017,05,02,05,59,6.40
2017,05,02,06,00,6.40
2017,05,02,06,01,6.40
2017,05,02,06,02,6.50
2017,05,02,06,03,6.50
2017,05,02,06,04,6.60
2017,05,02,06,05,6.60
2017,05,02,06,06,6.60
2017,05,02,06,07,6.60
2017,05,02,06,08,6.60
2017,05,02,06,09,6.60
2017,05,02,06,10,6.60
2017,05,02,06,11,6.60
2017,05,02,06,12,6.60
2017,05,02,06,13,6.60
2017,05,02,06,14,6.60
2017,05,02,06,15,6.70
2017,05,02,06,16,6.70
2017,05,02,06,17,6.70
2017,05,02,06,18,6.70
2017,05,02,06,19,6.70
2017,05,02,06,20,6.70
2017,05,02,06,21,6.70
2017,05,02,06,22,6.70
2017,05,02,06,23,6.70
2017,05,02,06,24,6.80
2017,05,02,06,25,6.80
2017,05,02,06,26,6.80
2017,05,02,06,27,6.80
2017,05,02,06,28,6.80
2017,05,02,06,29,6.80
2017,05,02,06,30,6.80
2017,05,02,06,31,6.80
2017,05,02,06,32,6.80
2017,05,02,06,33,6.80
2017,05,02,06,34,6.80
2017,05,02,06,35,6.90
2017,05,02,06,36,6.90
2017,05,02,06,37,6.90
2017,05,02,06,38,6.90
2017,05,02,06,39,6.90
2017,05,02,06,40,6.90
2017,05,02,06,41,6.90
2017,05,02,06,42,7.00
2017,05,02,06,43,7.00
2017,05,02,06,44,7.00
2017,05,02,06,45,7.00
2017,05,02,06,46,7.00
2017,05,02,06,47,7.10
2017,05,02,06,48,7.10
2017,05,02,06,49,7.10
2017,05,02,06,50,7.10
2017,05,02,06,51,7.20
2017,05,02,06,52,7.20
2017,05,02,06,53,7.20
2017,05,02,06,54,7.20
2017,05,02,06,55,7.20
2017,05,02,06,56,7.20
2017,05,02,06,57,7.30
2017,05,02,06,58,7.30
2017,05,02,06,59,7.30
2017,05,02,07,00,7.30
2017,05,02,07,01,7.30
2017,05,02,07,02,7.30
2017,05,02,07,03,7.40
2017,05,02,07,04,7.40
2017,05,02,07,05,7.40
2017,05,02,07,06,7.40
2017,05,02,07,07,7.40
2017,05,02,07,08,7.40
2017,05,02,07,09,7.50
2017,05,02,07,10,7.50
2017,05,02,07,11,7.50
2017,05,02,07,12,7.50
2017,05,02,07,13,7.60
2017,05,02,07,14,7.60
2017,05,02,07,15,7.60
2017,05,02,07,16,7.60
2017,05,02,07,17,7.60
2017,05,02,07,18,7.70
2017,05,02,07,19,7.70
2017,05,02,07,20,7.70
2017,05,02,07,21,7.70
2017,05,02,07,22,7.70
2017,05,02,07,23,7.70
2017,05,02,07,24,7.80
2017,05,02,07,25,7.80
2017,05,02,07,26,7.80
2017,05,02,07,27,7.80
2017,05,02,07,28,7.80
2017,05,02,07,29,7.80
2017,05,02,07,30,7.90
2017,05,02,07,31,7.90
2017,05,02,07,32,7.90
2017,05,02,07,33,8.00
2017,05,02,07,34,8.00
2017,05,02,07,35,8.10
2017,05,02,07,36,8.20
2017,05,02,07,37,8.20
2017,05,02,07,38,8.30
2017,05,02,07,39,8.30
2017,05,02,07,40,8.40
2017,05,02,07,41,8.40
2017,05,02,07,42,8.50
2017,05,02,07,43,8.60
2017,05,02,07,44,8.60
2017,05,02,07,45,8.70
2017,05,02,07,46,8.70
2017,05,02,07,47,8.70
2017,05,02,07,48,8.80
2017,05,02,07,49,8.80
2017,05,02,07,50,8.80
2017,05,02,07,51,8.80
2017,05,02,07,52,8.90
2017,05,02,07,53,8.90
2017,05,02,07,54,8.90
2017,05,02,07,55,8.90
2017,05,02,07,56,8.90
2017,05,02,07,57,8.90
2017,05,02,07,58,8.90
2017,05,02,07,59,9.00
2017,05,02,08,00,9.10
2017,05,02,08,01,9.10
2017,05,02,08,02,9.10
2017,05,02,08,03,9.10
2017,05,02,08,04,9.10
2017,05,02,08,05,9.10
2017,05,02,08,06,9.10
2017,05,02,08,07,9.10
2017,05,02,08,08,9.10
2017,05,02,08,09,9.10
2017,05,02,08,10,9.20
2017,05,02,08,11,9.20
2017,05,02,08,12,9.20
2017,05,02,08,13,9.20
2017,05,02,08,14,9.30
2017,05,02,08,15,9.30
2017,05,02,08,16,9.30
2017,05,02,08,17,9.30
2017,05,02,08,18,9.40
2017,05,02,08,19,9.40
2017,05,02,08,20,9.50
2017,05,02,08,21,9.50
2017,05,02,08,22,9.40
2017,05,02,08,23,9.40
2017,05,02,08,24,9.40
2017,05,02,08,25,9.50
2017,05,02,08,26,9.50
2017,05,02,08,27,9.50
2017,05,02,08,28,9.40
2017,05,02,08,29,9.50
2017,05,02,08,30,9.40
2017,05,02,08,31,9.50
2017,05,02,08,32,9.50
2017,05,02,08,33,9.50
2017,05,02,08,34,9.50
2017,05,02,08,35,9.50
2017,05,02,08,36,9.50
2017,05,02,08,37,9.60
2017,05,02,08,38,9.60
2017,05,02,08,39,9.60
2017,05,02,08,40,9.60
2017,05,02,08,41,9.60
2017,05,02,08,42,9.60
2017,05,02,08,43,9.60
2017,05,02,08,44,9.60
2017,05,02,08,45,9.70
2017,05,02,08,46,9.70
2017,05,02,08,47,9.70
2017,05,02,08,48,9.70
2017,05,02,08,49,9.70
2017,05,02,08,50,9.70
2017,05,02,08,51,9.80
2017,05,02,08,52,9.80
2017,05,02,08,53,9.80
2017,05,02,08,54,9.90
2017,05,02,08,55,9.80
2017,05,02,08,56,9.90
2017,05,02,08,57,9.90
2017,05,02,08,58,9.90
2017,05,02,08,59,10.00
2017,05,02,09,00,10.10
2017,05,02,09,01,10.10
2017,05,02,09,02,10.10
2017,05,02,09,03,10.10
2017,05,02,09,04,10.10
2017,05,02,09,05,10.10
2017,05,02,09,06,10.20
2017,05,02,09,07,10.20
2017,05,02,09,08,10.20
2017,05,02,09,09,10.30
2017,05,02,09,10,10.30
2017,05,02,09,11,10.30
2017,05,02,09,12,10.40
2017,05,02,09,13,10.50
2017,05,02,09,14,10.60
2017,05,02,09,15,10.60
2017,05,02,09,16,10.70
2017,05,02,09,17,10.60
2017,05,02,09,18,10.60
2017,05,02,09,19,10.60
2017,05,02,09,20,10.60
2017,05,02,09,21,10.60
2017,05,02,09,22,10.70
2017,05,02,09,23,10.70
2017,05,02,09,24,10.60
2017,05,02,09,25,10.60
2017,05,02,09,26,10.70
2017,05,02,09,27,10.70
2017,05,02,09,28,10.70
2017,05,02,09,29,10.70
2017,05,02,09,30,10.70
2017,05,02,09,31,10.70
2017,05,02,09,32,10.80
2017,05,02,09,33,10.80
2017,05,02,09,34,10.90
2017,05,02,09,35,10.90
2017,05,02,09,36,10.90
2017,05,02,09,37,10.90
2017,05,02,09,38,10.90
2017,05,02,09,39,10.80
2017,05,02,09,40,10.80
2017,05,02,09,41,10.80
2017,05,02,09,42,10.90
2017,05,02,09,43,10.90
2017,05,02,09,44,10.90
2017,05,02,09,45,10.90
2017,05,02,09,46,10.90
2017,05,02,09,47,10.90
2017,05,02,09,48,11.00
2017,05,02,09,49,11.00
2017,05,02,09,50,11.10
2017,05,02,09,51,11.10
2017,05,02,09,52,11.10
2017,05,02,09,53,11.20
2017,05,02,09,54,11.30
2017,05,02,09,55,11.30
2017,05,02,09,56,11.40
2017,05,02,09,57,11.40
2017,05,02,09,58,11.40
2017,05,02,09,59,11.40
2017,05,02,10,00,11.40
2017,05,02,10,01,11.40
2017,05,02,10,02,11.40
2017,05,02,10,03,11.40
2017,05,02,10,04,11.40
2017,05,02,10,05,11.30
2017,05,02,10,06,11.30
2017,05,02,10,07,11.30
2017,05,02,10,08,11.30
2017,05,02,10,09,11.30
2017,05,02,10,10,11.30
2017,05,02,10,11,11.30
2017,05,02,10,12,11.30
2017,05,02,10,13,11.20
2017,05,02,10,14,11.20
2017,05,02,10,15,11.10
2017,05,02,10,16,11.00
2017,05,02,10,17,10.90
2017,05,02,10,18,10.90
2017,05,02,10,19,10.80
2017,05,02,10,20,10.80
2017,05,02,10,21,10.70
2017,05,02,10,22,10.70
2017,05,02,10,23,10.70
2017,05,02,10,24,10.70
2017,05,02,10,25,10.70
2017,05,02,10,26,10.70
2017,05,02,10,27,10.70
2017,05,02,10,28,10.70
2017,05,02,10,29,10.70
2017,05,02,10,30,10.70
2017,05,02,10,31,10.70
2017,05,02,10,32,10.70
2017,05,02,10,33,10.70
2017,05,02,10,34,10.70
2017,05,02,10,35,10.80
2017,05,02,10,36,10.80
2017,05,02,10,37,10.80
2017,05,02,10,38,10.80
2017,05,02,10,39,10.90
2017,05,02,10,40,10.90
2017,05,02,10,41,11.00
2017,05,02,10,42,11.00
2017,05,02,10,43,11.00
2017,05,02,10,44,11.00
2017,05,02,10,45,11.10
2017,05,02,10,46,11.10
2017,05,02,10,47,11.10
2017,05,02,10,48,11.10
2017,05,02,10,49,11.10
2017,05,02,10,50,11.10
2017,05,02,10,51,11.10
2017,05,02,10,52,11.10
2017,05,02,10,53,11.10
2017,05,02,10,54,11.20
2017,05,02,10,55,11.20
2017,05,02,10,56,11.20
2017,05,02,10,57,11.20
2017,05,02,10,58,11.20
2017,05,02,10,59,11.20
2017,05,02,11,00,11.30
2017,05,02,11,01,11.30
2017,05,02,11,02,11.30
2017,05,02,11,03,11.30
2017,05,02,11,04,11.30
2017,05,02,11,05,11.40
2017,05,02,11,06,11.40
2017,05,02,11,07,11.60
2017,05,02,11,08,11.70
2017,05,02,11,09,11.70
2017,05,02,11,10,11.80
2017,05,02,11,11,11.80
2017,05,02,11,12,11.80
2017,05,02,11,13,11.90
2017,05,02,11,14,11.90
2017,05,02,11,15,12.00
2017,05,02,11,16,12.00
2017,05,02,11,17,12.10
2017,05,02,11,18,12.10
2017,05,02,11,19,12.20
2017,05,02,11,20,12.20
2017,05,02,11,21,12.20
2017,05,02,11,22,12.20
2017,05,02,11,23,12.20
2017,05,02,11,24,12.20
2017,05,02,11,25,12.20
2017,05,02,11,26,12.20
2017,05,02,11,27,12.20
2017,05,02,11,28,12.30
2017,05,02,11,29,12.30
2017,05,02,11,30,12.30
2017,05,02,11,31,12.30
2017,05,02,11,32,12.30
2017,05,02,11,33,12.30
2017,05,02,11,34,12.30
2017,05,02,11,35,12.30
2017,05,02,11,36,12.30
2017,05,02,11,37,12.20
2017,05,02,11,38,12.20
2017,05,02,11,39,12.20
2017,05,02,11,40,12.20
2017,05,02,11,41,12.20
2017,05,02,11,42,12.30
2017,05,02,11,43,12.30
2017,05,02,11,44,12.30
2017,05,02,11,45,12.40
2017,05,02,11,46,12.40
2017,05,02,11,47,12.40
2017,05,02,11,48,12.50
2017,05,02,11,49,12.50
2017,05,02,11,50,12.50
2017,05,02,11,51,12.50
2017,05,02,11,52,12.40
2017,05,02,11,53,12.40
2017,05,02,11,54,12.40
2017,05,02,11,55,12.40
2017,05,02,11,56,12.30
2017,05,02,11,57,12.30
2017,05,02,11,58,12.30
2017,05,02,11,59,12.30
2017,05,02,12,00,12.30
2017,05,02,12,01,12.20
2017,05,02,12,02,12.20
2017,05,02,12,03,12.20
2017,05,02,12,04,12.20
2017,05,02,12,05,12.20
2017,05,02,12,06,12.20
2017,05,02,12,07,12.20
2017,05,02,12,08,12.20
2017,05,02,12,09,12.20
2017,05,02,12,10,12.20
2017,05,02,12,11,12.20
2017,05,02,12,12,12.30
2017,05,02,12,13,12.30
2017,05,02,12,14,12.30
2017,05,02,12,15,12.30
2017,05,02,12,16,12.30
2017,05,02,12,17,12.30
2017,05,02,12,18,12.30
2017,05,02,12,19,12.30
2017,05,02,12,20,12.30
2017,05,02,12,21,12.30
2017,05,02,12,22,12.30
2017,05,02,12,23,12.30
2017,05,02,12,24,12.30
2017,05,02,12,25,12.30
2017,05,02,12,26,12.30
2017,05,02,12,27,12.30
2017,05,02,12,28,12.40
2017,05,02,12,29,12.40
2017,05,02,12,30,12.40
2017,05,02,12,31,12.40
2017,05,02,12,32,12.40
2017,05,02,12,33,12.40
2017,05,02,12,34,12.40
2017,05,02,12,35,12.40
2017,05,02,12,36,12.40
2017,05,02,12,37,12.40
2017,05,02,12,38,12.50
2017,05,02,12,39,12.50
2017,05,02,12,40,12.50
2017,05,02,12,41,12.50
2017,05,02,12,42,12.60
2017,05,02,12,43,12.60
2017,05,02,12,44,12.60
2017,05,02,12,45,12.60
2017,05,02,12,46,12.60
2017,05,02,12,47,12.60
2017,05,02,12,48,12.60
2017,05,02,12,49,12.60
2017,05,02,12,50,12.60
2017,05,02,12,51,12.60
2017,05,02,12,52,12.60
2017,05,02,12,53,12.60
2017,05,02,12,54,12.60
2017,05,02,12,55,12.60
2017,05,02,12,56,12.60
2017,05,02,12,57,12.60
2017,05,02,12,58,12.60
2017,05,02,12,59,12.70
2017,05,02,13,00,12.70
2017,05,02,13,01,12.70
2017,05,02,13,02,12.70
2017,05,02,13,03,12.70
2017,05,02,13,04,12.70
2017,05,02,13,05,12.70
2017,05,02,13,06,12.70
2017,05,02,13,07,12.70
2017,05,02,13,08,12.60
2017,05,02,13,09,12.60
2017,05,02,13,10,12.70
2017,05,02,13,11,12.80
2017,05,02,13,12,12.80
2017,05,02,13,13,12.90
2017,05,02,13,14,13.00
2017,05,02,13,15,13.10
2017,05,02,13,16,13.10
2017,05,02,13,17,13.00
2017,05,02,13,18,12.90
2017,05,02,13,19,12.90
2017,05,02,13,20,12.90
2017,05,02,13,21,12.90
2017,05,02,13,22,12.90
2017,05,02,13,23,12.90
2017,05,02,13,24,12.90
2017,05,02,13,25,12.90
2017,05,02,13,26,13.00
2017,05,02,13,27,13.00
2017,05,02,13,28,13.10
2017,05,02,13,29,13.10
2017,05,02,13,30,13.10
2017,05,02,13,31,13.00
2017,05,02,13,32,13.00
2017,05,02,13,33,12.90
2017,05,02,13,34,12.90
2017,05,02,13,35,12.90
2017,05,02,13,36,12.90
2017,05,02,13,37,12.90
2017,05,02,13,38,13.00
2017,05,02,13,39,13.00
2017,05,02,13,40,12.90
2017,05,02,13,41,12.90
2017,05,02,13,42,12.90
2017,05,02,13,43,12.90
2017,05,02,13,44,12.90
2017,05,02,13,45,13.00
2017,05,02,13,46,13.00
2017,05,02,13,47,13.00
2017,05,02,13,48,12.90
2017,05,02,13,49,12.90
2017,05,02,13,50,12.90
2017,05,02,13,51,12.90
2017,05,02,13,52,12.90
2017,05,02,13,53,12.90
2017,05,02,13,54,12.90
2017,05,02,13,55,12.90
2017,05,02,13,56,12.90
2017,05,02,13,57,12.90
2017,05,02,13,58,12.90
2017,05,02,13,59,12.90
2017,05,02,14,00,12.90
2017,05,02,14,01,12.90
2017,05,02,14,02,12.90
2017,05,02,14,03,12.90
2017,05,02,14,04,13.00
2017,05,02,14,05,13.00
2017,05,02,14,06,13.10
2017,05,02,14,07,13.10
2017,05,02,14,08,13.10
2017,05,02,14,09,13.20
2017,05,02,14,10,13.30
2017,05,02,14,11,13.30
2017,05,02,14,12,13.30
2017,05,02,14,13,13.40
2017,05,02,14,14,13.40
2017,05,02,14,15,13.40
2017,05,02,14,16,13.40
2017,05,02,14,17,13.40
2017,05,02,14,18,13.30
2017,05,02,14,19,13.30
2017,05,02,14,20,13.30
2017,05,02,14,21,13.30
2017,05,02,14,22,13.30
2017,05,02,14,23,13.30
2017,05,02,14,24,13.30
2017,05,02,14,25,13.30
2017,05,02,14,26,13.30
2017,05,02,14,27,13.40
2017,05,02,14,28,13.40
2017,05,02,14,29,13.40
2017,05,02,14,30,13.40
2017,05,02,14,31,13.40
2017,05,02,14,32,13.40
2017,05,02,14,33,13.40
2017,05,02,14,34,13.40
2017,05,02,14,35,13.40
2017,05,02,14,36,13.50
2017,05,02,14,37,13.50
2017,05,02,14,38,13.50
2017,05,02,14,39,13.50
2017,05,02,14,40,13.50
2017,05,02,14,41,13.50
2017,05,02,14,42,13.60
2017,05,02,14,43,13.60
2017,05,02,14,44,13.60
2017,05,02,14,45,13.60
2017,05,02,14,46,13.50
2017,05,02,14,47,13.40
2017,05,02,14,48,13.40
2017,05,02,14,49,13.30
2017,05,02,14,50,13.30
2017,05,02,14,51,13.30
2017,05,02,14,52,13.30
2017,05,02,14,53,13.30
2017,05,02,14,54,13.30
2017,05,02,14,55,13.30
2017,05,02,14,56,13.30
2017,05,02,14,57,13.30
2017,05,02,14,58,13.30
2017,05,02,14,59,13.30
2017,05,02,15,00,13.30
2017,05,02,15,01,13.30
2017,05,02,15,02,13.30
2017,05,02,15,03,13.30
2017,05,02,15,04,13.30
2017,05,02,15,05,13.40
2017,05,02,15,06,13.40
2017,05,02,15,07,13.40
2017,05,02,15,08,13.40
2017,05,02,15,09,13.40
2017,05,02,15,10,13.40
2017,05,02,15,11,13.40
2017,05,02,15,12,13.40
2017,05,02,15,13,13.40
2017,05,02,15,14,13.40
2017,05,02,15,15,13.40
2017,05,02,15,16,13.40
2017,05,02,15,17,13.40
2017,05,02,15,18,13.50
2017,05,02,15,19,13.50
2017,05,02,15,20,13.50
2017,05,02,15,21,13.40
2017,05,02,15,22,13.40
2017,05,02,15,23,13.50
2017,05,02,15,24,13.50
2017,05,02,15,25,13.50
2017,05,02,15,26,13.60
2017,05,02,15,27,13.60
2017,05,02,15,28,13.60
2017,05,02,15,29,13.60
2017,05,02,15,30,13.60
2017,05,02,15,31,13.60
2017,05,02,15,32,13.60
2017,05,02,15,33,13.60
2017,05,02,15,34,13.60
2017,05,02,15,35,13.60
2017,05,02,15,36,13.60
2017,05,02,15,37,13.60
2017,05,02,15,38,13.60
2017,05,02,15,39,13.70
2017,05,02,15,40,13.70
2017,05,02,15,41,13.70
2017,05,02,15,42,13.70
2017,05,02,15,43,13.70
2017,05,02,15,44,13.70
2017,05,02,15,45,13.70
2017,05,02,15,46,13.70
2017,05,02,15,47,13.70
2017,05,02,15,48,13.70
2017,05,02,15,49,13.70
2017,05,02,15,50,13.70
2017,05,02,15,51,13.70
2017,05,02,15,52,13.70
2017,05,02,15,53,13.80
2017,05,02,15,54,13.80
2017,05,02,15,55,13.80
2017,05,02,15,56,13.80
2017,05,02,15,57,13.80
2017,05,02,15,58,13.80
2017,05,02,15,59,13.80
2017,05,02,16,00,13.80
2017,05,02,16,01,13.80
2017,05,02,16,02,13.70
2017,05,02,16,03,13.70
2017,05,02,16,04,13.70
2017,05,02,16,05,13.70
2017,05,02,16,06,13.70
2017,05,02,16,07,13.70
2017,05,02,16,08,13.70
2017,05,02,16,09,13.70
2017,05,02,16,10,13.70
2017,05,02,16,11,13.70
2017,05,02,16,12,13.70
2017,05,02,16,13,13.70
2017,05,02,16,14,13.70
2017,05,02,16,15,13.70
2017,05,02,16,16,13.70
2017,05,02,16,17,13.70
2017,05,02,16,18,13.70
2017,05,02,16,19,13.70
2017,05,02,16,20,13.70
2017,05,02,16,21,13.70
2017,05,02,16,22,13.60
2017,05,02,16,23,13.60
2017,05,02,16,24,13.60
2017,05,02,16,25,13.60
2017,05,02,16,26,13.60
2017,05,02,16,27,13.60
2017,05,02,16,28,13.50
2017,05,02,16,29,13.50
2017,05,02,16,30,13.50
2017,05,02,16,31,13.50
2017,05,02,16,32,13.50
2017,05,02,16,33,13.50
2017,05,02,16,34,13.50
2017,05,02,16,35,13.50
2017,05,02,16,36,13.60
2017,05,02,16,37,13.50
2017,05,02,16,38,13.50
2017,05,02,16,39,13.50
2017,05,02,16,40,13.50
2017,05,02,16,41,13.50
2017,05,02,16,42,13.50
2017,05,02,16,43,13.60
2017,05,02,16,44,13.60
2017,05,02,16,45,13.60
2017,05,02,16,46,13.60
2017,05,02,16,47,13.60
2017,05,02,16,48,13.60
2017,05,02,16,49,13.70
2017,05,02,16,50,13.70
2017,05,02,16,51,13.60
2017,05,02,16,52,13.60
2017,05,02,16,53,13.60
2017,05,02,16,54,13.60
2017,05,02,16,55,13.70
2017,05,02,16,56,13.70
2017,05,02,16,57,13.70
2017,05,02,16,58,13.60
2017,05,02,16,59,13.60
2017,05,02,17,00,13.60
2017,05,02,17,01,13.60
2017,05,02,17,02,13.60
2017,05,02,17,03,13.50
2017,05,02,17,04,13.50
2017,05,02,17,05,13.50
2017,05,02,17,06,13.50
2017,05,02,17,07,13.50
2017,05,02,17,08,13.50
2017,05,02,17,09,13.50
2017,05,02,17,10,13.50
2017,05,02,17,11,13.50
2017,05,02,17,12,13.50
2017,05,02,17,13,13.50
2017,05,02,17,14,13.40
2017,05,02,17,15,13.40
2017,05,02,17,16,13.40
2017,05,02,17,17,13.40
2017,05,02,17,18,13.50
2017,05,02,17,19,13.40
2017,05,02,17,20,13.40
2017,05,02,17,21,13.40
2017,05,02,17,22,13.40
2017,05,02,17,23,13.40
2017,05,02,17,24,13.40
2017,05,02,17,25,13.40
2017,05,02,17,26,13.40
2017,05,02,17,27,13.40
2017,05,02,17,28,13.40
2017,05,02,17,29,13.40
2017,05,02,17,30,13.40
2017,05,02,17,31,13.30
2017,05,02,17,32,13.30
2017,05,02,17,33,13.30
2017,05,02,17,34,13.30
2017,05,02,17,35,13.30
2017,05,02,17,36,13.30
2017,05,02,17,37,13.30
2017,05,02,17,38,13.30
2017,05,02,17,39,13.30
2017,05,02,17,40,13.30
2017,05,02,17,41,13.30
2017,05,02,17,42,13.30